Regional Weather Roundup
Issued by NWS

Home | Current Version | Previous Version | Text Only | Print | Product List | Glossary On
Versions: 1 2 3 4 5 6 7 8 9 10 11 12 13 14 15 16 17 18 19 20 21 22 23 24 25 26 27 28 29 30 31 32 33 34 35 36 37 38 39 40 41 42 43 44 45 46 47 48 49 50
000
ASUS43 KMKX 240011
RWRWI

WISCONSIN REGIONAL WEATHER ROUNDUP
NATIONAL WEATHER SERVICE MILWAUKEE/SULLIVAN WI
700 PM CDT WED APR 23 2014

NOTE: "FAIR" INDICATES FEW OR NO CLOUDS BELOW 12,000 FEET WITH NO
SIGNIFICANT WEATHER AND/OR OBSTRUCTIONS TO VISIBILITY.

WIZ001-002-006>008-014>016-023>028-240100-
NORTHWEST WISCONSIN

CITY           SKY/WX    TMP DP  RH WIND       PRES   REMARKS
SUPERIOR ARPT  CLOUDY    36  30  80 NE7       30.02F WCI  30
6HR MIN TEMP:  36; 6HR MAX TEMP:  46;

ASHLAND        CLOUDY    36  30  79 N8        30.03F WCI  30
6HR MIN TEMP:  36; 6HR MAX TEMP:  51;

HAYWARD        CLOUDY    49  24  37 S8        29.99F
6HR MIN TEMP:  49; 6HR MAX TEMP:  53;

SIREN          DRIZZLE   49  26  40 SE8       30.00R
6HR MIN TEMP:  49; 6HR MAX TEMP:  53;

RICE LAKE      CLOUDY    49  25  39 SE8       30.00F
6HR MIN TEMP:  49; 6HR MAX TEMP:  51;

LADYSMITH      CLOUDY    49  25  39 SE9       30.03F
6HR MIN TEMP:  49; 6HR MAX TEMP:  54;

EAU CLAIRE     LGT RAIN  43  38  82 SE8       29.99F
6HR MIN TEMP:  43; 6HR MAX TEMP:  53; 6HR PCP:  0.02;

MENOMONIE      LGT RAIN  43  38  82 E12       29.98F
6HR MIN TEMP:  42; 6HR MAX TEMP:  53; 6HR PCP:  0.01;

NEW RICHMOND   LGT RAIN  41  37  86 E6        29.98R
6HR MIN TEMP:  39; 6HR MAX TEMP:  50; 6HR PCP:  0.03;

OSCEOLA        RAIN      41  39  95 E7        30.01R
6HR MIN TEMP:  40; 6HR MAX TEMP:  50; 6HR PCP:  0.04;

$$

WIZ003>005-009-010-017-018-240100-
NORTH CENTRAL WISCONSIN

CITY           SKY/WX    TMP DP  RH WIND       PRES   REMARKS
WOODRUFF       CLOUDY    52  20  28 S7        30.03F
6HR MIN TEMP:  52; 6HR MAX TEMP:  58;

RHINELANDER    CLOUDY    50  22  33 S9        30.05F
6HR MIN TEMP:  47; 6HR MAX TEMP:  53;

EAGLE RIVER    CLOUDY    50  16  25 SE6       30.03F
6HR MIN TEMP:  50; 6HR MAX TEMP:  54;

LAND O LAKES   CLOUDY    51  18  27 S5        30.05S
6HR MIN TEMP:  49; 6HR MAX TEMP:  55;

PHILLIPS       CLOUDY    48  26  41 S9        30.02F
6HR MIN TEMP:  48; 6HR MAX TEMP:  53;

TOMAHAWK       CLOUDY    48  24  39 S5        30.04F
6HR MIN TEMP:  48; 6HR MAX TEMP:  55;

MEDFORD        CLOUDY    46  24  41 SE8       30.03F
6HR MIN TEMP:  46; 6HR MAX TEMP:  50;

MERRILL        CLOUDY    48  24  38 SE9       30.05F
6HR MIN TEMP:  48; 6HR MAX TEMP:  53;

$$

WIZ029-030-035-036-043>047-240100-
CENTRAL WISCONSIN

CITY           SKY/WX    TMP DP  RH WIND       PRES   REMARKS
WAUSAU         CLOUDY    48  23  37 SE9       30.05F
6HR MIN TEMP:  48; 6HR MAX TEMP:  52;

MOSINEE        CLEAR     46  25  42 SE9       30.07F
MARSHFIELD     CLOUDY    48  25  40 SE13      30.03F
6HR MIN TEMP:  48; 6HR MAX TEMP:  51;

STEVENS POINT  CLOUDY    46  22  38 E9        30.07F
6HR MIN TEMP:  46; 6HR MAX TEMP:  49;

WAUPACA        CLOUDY    52  25  35 E9        30.09F
WAUTOMA        CLOUDY    51  29  43 E7        30.08F
6HR MIN TEMP:  51; 6HR MAX TEMP:  53;

WISC RAPIDS    CLOUDY    49  24  37 E12       30.06F
6HR MIN TEMP:  49; 6HR MAX TEMP:  54;

CAMP DOUGLAS   LGT RAIN  45  41  87 S9        30.05S
                                      6HR PCP: TRACE;

$$

WIZ011>013-019>022-031-037>040-048>050-240100-
NORTHEAST WISCONSIN

CITY           SKY/WX    TMP DP  RH WIND       PRES   REMARKS
ANTIGO         CLOUDY    45  22  40 SE10      30.08S
6HR MIN TEMP:  45; 6HR MAX TEMP:  51;

STURGEON BAY   MOCLDY    41  10  28 S5        30.14S
6HR MIN TEMP:  41; 6HR MAX TEMP:  46;

GREEN BAY      CLOUDY    45  13  27 SE7       30.13S
6HR MIN TEMP:  45; 6HR MAX TEMP:  50;

MANITOWOC      CLOUDY    42   9  25 NE3       30.15R
6HR MIN TEMP:  42; 6HR MAX TEMP:  47;

APPLETON       MOCLDY    46  25  42 SE8       30.11F
CLINTONVILLE   CLOUDY    48  23  37 E6        30.10F
OSHKOSH        CLOUDY    46  25  43 E9        30.11S
6HR MIN TEMP:  46; 6HR MAX TEMP:  51;

$$

WIZ032>034-041-042-053>061-240100-
SOUTHWEST WISCONSIN

CITY           SKY/WX    TMP DP  RH WIND       PRES   REMARKS
LA CROSSE      CLOUDY    46  36  68 E9        29.98F
6HR MIN TEMP:  45; 6HR MAX TEMP:  53; 6HR PCP:  0.01;

SPARTA         DRIZZLE   42  38  86 SE9       30.02F
6HR MIN TEMP:  42; 6HR MAX TEMP:  55; 6HR PCP:  0.13;

VIROQUA        CLOUDY    44  34  67 E17G23    29.98F
6HR MIN TEMP:  44; 6HR MAX TEMP:  50;

BOSCOBEL       CLOUDY    54  25  32 E12G17    30.00F
6HR MIN TEMP:  52; 6HR MAX TEMP:  56;

PRAIRIE DU CHI LGT RAIN  51  31  46 E13G18    29.97F
6HR MIN TEMP:  48; 6HR MAX TEMP:  53;

PLATTEVILLE    FAIR      50  32  48 E14       30.00F
6HR MIN TEMP:  50; 6HR MAX TEMP:  53;

$$

WIZ056-057-062-063-064-067-068-240100-
SOUTH CENTRAL WISCONSIN

CITY           SKY/WX    TMP DP  RH WIND       PRES   REMARKS
BARABOO/DELLS  LGT RAIN  46  36  68 S7        30.07F
6HR MIN TEMP:  46; 6HR MAX TEMP:  54;

LONE ROCK      CLOUDY    52  30  43 E13       30.03F
6HR MIN TEMP:  52; 6HR MAX TEMP:  55;

WATERTOWN      CLOUDY    47  24  40 E9        30.10R
6HR MIN TEMP:  47; 6HR MAX TEMP:  55;

MADISON        LGT RAIN  50  32  50 SE9G20    30.08S
6HR MIN TEMP:  50; 6HR MAX TEMP:  57; 6HR PCP: TRACE;

MIDDLETON      CLOUDY    52  26  36 E6        30.06F
6HR MIN TEMP:  52; 6HR MAX TEMP:  56;

MONROE         CLOUDY    51  26  38 E12       30.04F
6HR MIN TEMP:  51; 6HR MAX TEMP:  55;

JANESVILLE     MOCLDY    52  25  35 SE10      30.08S
$$

WIZ051-052-058>065-066-070>072-240100-
SOUTHEAST WISCONSIN

CITY           SKY/WX    TMP DP  RH WIND       PRES   REMARKS
MILWAUKEE      CLOUDY    40  20  44 NE6       30.14S
6HR MIN TEMP:  40; 6HR MAX TEMP:  45;

WAUKESHA       CLOUDY    43  18  36 E6        30.13S
MILWAUKEE/TIMM CLEAR     43  12  28 NE5       30.13F
RACINE         CLOUDY    40  21  46 NE5       30.14F
6HR MIN TEMP:  40; 6HR MAX TEMP:  46;

BURLINGTON     CLOUDY    43  22  43 E7        30.12S
6HR MIN TEMP:  43; 6HR MAX TEMP:  51;

KENOSHA        CLOUDY    42  22  44 E8        30.12F
6HR MIN TEMP:  42; 6HR MAX TEMP:  48;

FOND DU LAC    CLOUDY    47  22  37 SE9       30.11S
6HR MIN TEMP:  47; 6HR MAX TEMP:  53;

SHEBOYGAN      CLOUDY    41  13  31 NE5       30.14S
6HR MIN TEMP:  41; 6HR MAX TEMP:  48;

WEST BEND      CLOUDY    41  12  30 E6        30.12S
JUNEAU         CLOUDY    47  15  27 E10       30.11S
6HR MIN TEMP:  47; 6HR MAX TEMP:  54;

$$

LSZ147-162-240100-
LAKE SUPERIOR

STATION/POSITION TIME  TEMP    WIND        PRES    WAVE
                       AIR SEA DIR/SP/G            HT/PER
                 (UTC) (F)     (DEG/KT/KT) (MB)    (FT/S)
DEVILS ISLAND    0000   36      70/  7/  8 1018.4F
PORT WING        2300   37      40/  9/ 10 1016.9
SAXON HARBOR     2300           CALM  /  2 1017.3F
$$

LMZ867-665-643>646-240100-
LAKE MICHIGAN

STATION/POSITION TIME  TEMP    WIND        PRES    WAVE
                       AIR SEA DIR/SP/G            HT/PER
                 (UTC) (F)     (DEG/KT/KT) (MB)    (FT/S)
NORTHPORT PIER   2300   42     170/  7/  9 1020.7S
SISTER BAY       2308   46     160/  7/ 10   N/A
KEWAUNEE LAKESHO 2300   38      30/  4/  4 1021.5F
SHEBOYGAN LAKESH 0000   39      10/  6/  7 1021.4F
PORT WASHINGTON  2300   39      90/  1/  2 1021.3S
MILWAUKEE LAKESH 2300   37      60/  5/  6   N/A
KENOSHA   LAKESH 0000   39      40/  4/  6   N/A
$$

TC  - TEMPERATURE IN CELSIUS
VSB - VISIBILITY IN STATUTE MILES
WCI - WIND CHILL INDEX
HX  - HEAT INDEX




USA.gov is the U.S. government's official web portal to all federal, state and local government web resources and services.